User: anonymous
Location: Oshawa
(43.9000°N, 78.8670°W)
Time: 18:24:20
(UTC-04:00)
Language:

Cosmos 1707 Rocket - Orbit

View from above orbital plane
View from above orbital plane
View from above satellite
View from above satellite

Ground track
Ground track

The orbit data is extracted from the following two-line orbital elements,

1 16327U 85113B   14264.81945010  .00000257  00000-0  28665-4 0  4622
2 16327 082.5332 306.4193 0019997 047.7157 083.8666 14.82852560553748
Epoch (UTC): 21 September 2014 19:40:00
Eccentricity: 0.0019997
inclination: 82.5332°
perigee height: 606 km
apogee height: 634 km
right ascension of ascending node: 306.4193°
argument of perigee: 47.7157°
revolutions per day: 14.82852560
mean anomaly at epoch: 83.8666°
orbit number at epoch: 55374

The dashed part of the orbit path shows where the satellite is in the earth's shadow,  

DLR